Flag for Canada Weather past 2 weeks in Medicine Hat, Alberta, Canada

Now
43 °F

Overcast.


Feels Like: 39 °F
Forecast: 32 / 52 °F
Wind: 7 mph from Northwest

Location: Medicine Hat

Current Time: Apr 26, 2015 at 3:13:54 PM

Latest Report: Apr 26, 2015 at 2:00 PM


Visibility: 15 mi

Pressure: 30.25 "Hg

Humidity: 66%

Dew point: 32 °F

Location of Medicine HatLocation

Historic Weather in Medicine Hat — Graph

°F

Medicine Hat temperature yesterday

Maximum temperature yesterday: 48 °F (at 12:00 AM)
Minimum temperature yesterday: 32 °F (at 11:56 PM)
Average temperature yesterday: 39 °F

Past Weeks' High & Low Weather Summary

 TemperatureHumidityPressure
High73 °F (Apr 22, 5:00 PM)100% (Apr 25, 11:56 PM)30.35 "Hg (Apr 25, 11:56 PM)
Low23 °F (Apr 19, 6:00 AM)17% (Apr 16, 5:00 PM)29.37 "Hg (Apr 11, 2:00 PM)
Average48 °F51%29.92 "Hg
* Reported Apr 11 2:00 PM — Apr 26 2:00 PM, Medicine Hat, Weather by CustomWeather, © 2015

Note: Actual official high and low records may vary slightly from our data, if they occured in-between our weather recording intervals... More about our weather records

Advertising

Medicine Hat weather history for previous 24 hours

 ConditionsComfort  
Time TempWeatherWind HumidityBarometerVisibility
2:00 PM
Sun, Apr 26
43 °FOvercast.7 mph66%30.25 "Hg15 mi
1:00 PM41 °FOvercast.5 mph70%30.25 "Hg15 mi
12:00 PM39 °FOvercast.7 mph75%30.27 "Hg15 mi
11:00 AM37 °FOvercast.7 mph81%30.27 "Hg10 mi
10:00 AM36 °FOvercast.9 mph87%30.25 "Hg10 mi
9:00 AM36 °FOvercast.9 mph87%30.23 "Hg10 mi
8:00 AM34 °FLow clouds.9 mph93%30.21 "Hg10 mi
7:00 AM34 °FLow clouds.8 mph87%30.19 "Hg10 mi
6:00 AM32 °FLow clouds.10 mph93%30.18 "Hg9 mi
5:00 AM32 °FLow clouds.10 mph93%30.15 "Hg9 mi
4:00 AM32 °FLow clouds.10 mph100%30.12 "Hg9 mi
3:00 AM32 °FOvercast.9 mph100%30.11 "Hg9 mi
2:57 AM32 °FOvercast.13 mph93%30.11 "Hg9 mi
2:00 AM32 °FLow clouds.13 mph100%30.11 "Hg8 mi
1:00 AM32 °FMostly cloudy.12 mph100%30.11 "Hg7 mi
12:00 AM32 °FMostly cloudy.10 mph100%30.10 "Hg8 mi
11:56 PM
Sat, Apr 25
32 °FMostly cloudy.10 mph100%30.10 "Hg7 mi
11:04 PM34 °FFog.10 mph93%30.08 "Hg6 mi
10:00 PM34 °FOvercast.12 mph93%30.05 "Hg9 mi
9:00 PM36 °FOvercast.14 mph87%30.03 "Hg15 mi
8:00 PM37 °FOvercast.13 mph81%30.01 "Hg15 mi
7:00 PM37 °FOvercast.12 mph81%29.99 "Hg15 mi
6:00 PM39 °FOvercast.13 mph81%29.98 "Hg30 mi
5:00 PM39 °FMostly cloudy.13 mph81%29.96 "Hg30 mi
4:00 PM39 °FOvercast.13 mph81%29.95 "Hg30 mi
3:00 PM39 °FOvercast.10 mph81%29.93 "Hg30 mi
Weather by CustomWeather, © 2015

See weather overviewHow to use our weather pages